WELCOME TO TCFT

Voted One Of The Best Flight Schools In The USA

 

 

BECOME AN AIRLINE PILOT

Treasure Coast Flight Training is committed to serving all of your aviation needs as a full service flight academy, aircraft rental facility, and pilot shop

 

 

Questions About Becoming An Airline Pilot?

 

 

What Our Graduates Say

 

 

The training I received with Treasure Coast Flight Training prepared me to become a professional pilot

 

Nathan Meisner

Pilot - Cessna Caravan - USA

Professional yet relaxed environment. Truly an enjoyable experience to fly with TCFT

 

Sophia

Certified Flight Instructor - China

The training I needed to get me to where I am now!

 

Enderson Rafael

Pilot - Go Airlines - Brazil

Thank you TCFT for making me an airline pilot!

 

Kyle Barrett

Pilot - GoJet Airlines - USA

Current Conditions

 

Metar

 

KSUA 201848Z 27006KT 7SM BKN030 BKN040 28/19 A3004

 

TAF

 

TAF KSUA 201728Z 2018/2118 VRB06KT P6SM VCSH SCT030 SCT070 FM210000 02008KT P6SM SCT025 BKN035 BKN070 FM210600 36005KT P6SM FEW025 SCT080 SCT250 FM211600 35008KT P6SM FEW040 SCT250

 

 

Look No Further. Get Started Today